Dauntless Aviation
Greetings, Guest! To participate, [sign up for a free account] or [log in]
Airports South America Argentina
SABE
AEP

Aeroparque Jorge Newbery

Buenos Aires, ARGENTINA

Airport Info
Edit

Location

Latitude / Longitude: 34°33'33"S / 58°24'56"W
  34°33.552'S / 58°24.936'W
  -34.5592 / -58.4156

Nearby radio navigation aids

FDO SAN FERNANDO VOR/DME. 132.7° 10.6nm from FDO to field.
OP AEROPARQUE JORGE NEWBERY NDB. 131.1° 4.3nm from OP to field.

Runway Information

Runway 13 /31

Dimensions: 6890 x 131 ft.
Surface: ASP
 
Runway 13
Runway 31
Latitude: -34.553942 -34.563844
Longitude: -58.425247 -58.407506
Elevation: 18 ft. 18 ft.
Runway true heading: 126.3 306.3
 

Instrument Procedures

STARs (Standard Terminal Arrivals)

  STAR Rwy 13/16 PAGON7C SANANTONIO7C ASADA7C VALOS8C
  STAR Rwy 13/16 SURBO7A SARGO7C KOVUK7C TENIL7C BELGRANO7C
  STAR Rwy 31 SURBO2B SARGO7D KOVUK7D TENIL7D BELGRANO7D VALOS7D ASADA7D
  STAR Rwy 31 PAGON7D SANANTONIO7D

IAPs (Instrument Approach Procedures)

  VOR (DME) ILS (DME) Rwy 13 (From VANAR)
  VOR (DME) ILS (DME) Rwy 13
  LI ILS (DME) Rwy 13
  VOR (DME) LO LI Rwy 13 (From VANAR)
  LI LO LI Rwy 13
  LI Rwy 13 (From QUILMES)
  LI Rwy 31

Departure Procedures

  SID Rwy 13/31
  SID Rwy 13/31 Textual Description
  SID Rwy 13/31 LANDA3B BIVAM3B ATOVO3B
  SID 13/31 LANDA3B BIVAM3B ATOVO3B Textual Description
  SID Rwy 13/31 KUKEN7 SUROBO7 DORVO7 LAPLATA7
  SID Rwy 13/31 KUKEN7 SUROBO7 DORVO7 LAPLATA7 Textual Description
  SID S Rwy 13/31
  SID Rwy 13/31 Textual Description
Satellite photo at:
Airport distance calculator
From:
Weather Reports

METAR

SABE

SABE 011800Z 11013KT 9999 BKN009 14/11 Q1013
SADF
10.6nm W
SADF 011800Z 07010KT 9999 FEW015 BKN200 15/12 Q1012
SAEZ
16.2nm S
SAEZ 011800Z 10011KT 9999 FEW017 SCT200 17/11 Q1013
SUCA
30.3nm NE
SUCA 011800Z XXXXXKT 9999 FEW013 15/XX Q1011

TAF

SABE
TAF SABE 312300Z 0100/0124 18005KT CAVOK TX21/0118Z TN12/0110Z BECMG 0106/0108 09005KT 7000 NSC BECMG 0113/0114 11010KT 9999 SCT020 BKN060 BECMG 0122/0124 09020KT
SADF
10.6nm W
TAF SADF 312300Z 0100/0124 18005KT CAVOK TX21/0118Z TN11/0110Z BECMG 0106/0108 09005KT 4000 BR FEW015 BECMG 0113/0114 11010KT 9999 SCT020 BKN060 BECMG 0122/0124 09020KT
SAEZ
16.2nm S
TAF SAEZ 312300Z 0100/0124 20005KT CAVOK TX20/0118Z TN10/0110Z BECMG 0104/0107 14005KT 3000 BR NSC TEMPO 0106/0112 00000KT 0600 BCFG SCT008 BECMG 0114/0117 09010KT 9999 SCT045 BECMG 0121/0124 9999 BKN040
SUCA
30.3nm NE
SUCA 011700Z 0118/0218 09010KT 9999 SCT020 BKN080 TX17/0218Z TN10/0210Z PROB30 TEMPO 0122/0211 2000 BR OVC005 BECMG 0200/0202 08015KT
Safelog

 

Dauntless Aviation

© 2007-2014 Dauntless Aviation, all rights reserved
Information provided via PilotNav comes from a variety of official and unofficial data sources. As errors are possible, do not use PilotNav for primary flight planning purposes. Verify any information that you receive via PilotNav with current and canonical charts and other official documents. The material in this database is subject to database copyrights held by Dauntless Aviation and may not be copied without the express permission of Dauntless Aviation - licenses for use of part of all of this data are available for purchase; enquire via the Dauntless Aviation helpdesk. A number of mechanisms and markers exist in the database to protect against and identify infringement / copyright. Automated queries against this website are stictly prohibited, and all activity is logged and analyzed.